North Adams, MA

2:16 AM EDT on July 25, 2017 (GMT -0400)
Harriman And West

Weather History for KAQW - March, 2012

Change the Weather History Date:

Sunday, March 4, 2012

  Actual Average Record
Temperature  
Mean Temperature 32 °F -  
Max Temperature 37 °F 35 °F 54 °F (1999)
Min Temperature 26 °F 18 °F -4 °F (2014)
Degree Days  
Heating Degree Days 33    
Moisture  
Dew Point 15 °F    
Average Humidity 48    
Maximum Humidity 58    
Minimum Humidity 36    
Precipitation  
Precipitation 0.00 in - - ()
Sea Level Pressure  
Sea Level Pressure 29.63 in    
Wind  
Wind Speed 9 mph (West)    
Max Wind Speed 13 mph    
Max Gust Speed 21 mph    
Visibility 10 miles    
Events      
Averages and records for this station are not official NWS values.
T = Trace of Precipitation, MM = Missing Value Source: NWS Daily Summary

Daily Weather History Graph

Daily Weather History Graph

Search for Another Location

Airport or City:

Trip Planner

Search our weather history database for the weather conditions in past years. The results will help you decide how hot, cold, wet, or windy it might be!

Date:

Astronomy

Mar. 04, 2012 Rise Set
Actual Time 6:22 AM EST 5:46 PM EST
Civil Twilight 5:54 AM EST 6:14 PM EST
Nautical Twilight 5:21 AM EST 6:47 PM EST
Astronomical Twilight 4:49 AM EST 7:20 PM EST
Moon 1:51 PM EST (3/4) 3:45 AM EST (3/4)
Length of Visible Light 12h 20m
Length of Day
11h 23m
Waxing Gibbous, 83% of the Moon is Illuminated
Mar 4
Waxing Gibbous
Mar 8
Full
Mar 14
Last Quarter
Mar 22
New
Mar 30
First Quarter

Hourly Weather History & Observations

Time (EST) Temp. Windchill Dew Point Humidity Pressure Visibility Wind Dir Wind Speed Gust Speed Precip Events Conditions
12:52 AM 35.1 °F 26.4 °F 17.1 °F 48% 29.65 in 10.0 mi West 12.7 mph 17.3 mph N/A   Clear
1:52 AM 34.0 °F 27.2 °F 16.0 °F 48% 29.66 in 10.0 mi West 8.1 mph - N/A   Clear
2:52 AM 32.0 °F 27.5 °F 14.0 °F 48% 29.62 in 10.0 mi West 4.6 mph - N/A   Clear
3:52 AM 32.0 °F 24.8 °F 15.1 °F 50% 29.64 in 10.0 mi West 8.1 mph - N/A   Clear
4:52 AM 30.9 °F 22.8 °F 15.1 °F 52% 29.65 in 10.0 mi West 9.2 mph - N/A   Clear
5:52 AM 28.9 °F 22.8 °F 14.0 °F 54% 29.65 in 10.0 mi West 5.8 mph - N/A   Clear
6:52 AM 28.0 °F 21.7 °F 14.0 °F 56% 29.66 in 10.0 mi West 5.8 mph - N/A   Clear
7:52 AM 33.1 °F 26.9 °F 15.1 °F 48% 29.65 in 10.0 mi West 6.9 mph - N/A   Overcast
8:52 AM 35.1 °F 29.3 °F 15.1 °F 44% 29.64 in 10.0 mi West 6.9 mph - N/A   Mostly Cloudy
9:52 AM 36.0 °F 30.3 °F 15.1 °F 43% 29.62 in 10.0 mi West 6.9 mph 17.3 mph N/A   Scattered Clouds
10:52 AM 37.9 °F 32.1 °F 15.1 °F 39% 29.62 in 10.0 mi NNW 8.1 mph - N/A   Overcast
11:52 AM 37.0 °F 30.4 °F 14.0 °F 39% 29.60 in 10.0 mi West 9.2 mph - N/A   Overcast
12:52 PM 37.9 °F 31.5 °F 12.9 °F 36% 29.58 in 10.0 mi WSW 9.2 mph - N/A   Scattered Clouds
1:52 PM 37.9 °F 30.9 °F 12.9 °F 36% 29.56 in 10.0 mi West 10.4 mph - N/A   Overcast
2:52 PM 37.0 °F 29.8 °F 14.0 °F 39% 29.56 in 10.0 mi West 10.4 mph - N/A   Overcast
3:52 PM 37.0 °F 29.8 °F 14.0 °F 39% 29.56 in 10.0 mi WNW 10.4 mph 17.3 mph N/A   Overcast
4:52 PM 36.0 °F 32.1 °F 21.0 °F 55% 29.59 in 10.0 mi Variable 4.6 mph - N/A   Overcast
5:52 PM 34.0 °F 28.8 °F 19.0 °F 54% 29.61 in 10.0 mi West 5.8 mph - N/A   Mostly Cloudy
6:52 PM 32.0 °F 23.6 °F 16.0 °F 52% 29.62 in 10.0 mi West 10.4 mph - N/A   Mostly Cloudy
7:52 PM 32.0 °F 22.5 °F 17.1 °F 54% 29.64 in 10.0 mi West 12.7 mph 20.7 mph N/A   Overcast
8:52 PM 30.0 °F 22.4 °F 15.1 °F 54% 29.66 in 10.0 mi West 8.1 mph 17.3 mph N/A   Overcast
9:52 PM 28.0 °F 20.0 °F 12.9 °F 53% 29.67 in 10.0 mi West 8.1 mph 17.3 mph N/A   Mostly Cloudy
10:52 PM 27.0 °F 20.5 °F 14.0 °F 58% 29.68 in 10.0 mi WNW 5.8 mph - N/A   Overcast
11:52 PM 26.1 °F 17.6 °F 12.0 °F 55% 29.70 in 10.0 mi West 8.1 mph 18.4 mph N/A   Overcast